Time,TemperatureF,DewpointF,PressureIn,WindDirection,WindDirectionDegrees,WindSpeedMPH,WindSpeedGustMPH,Humidity,HourlyPrecipIn,Conditions,Clouds,dailyrainin,SoftwareType,DateUTC
2013-04-14 00:05:00,40.3,32.3,29.86,East,85,2.0,7.0,73,0.00,,,0.00,Wunderground v.1.15,2013-04-14 05:05:00,
2013-04-14 00:11:00,40.2,32.2,29.85,ENE,70,2.0,7.0,73,0.00,,,0.00,Wunderground v.1.15,2013-04-14 05:11:00,
2013-04-14 00:17:00,40.2,32.2,29.85,East,100,2.0,7.0,73,0.00,,,0.00,Wunderground v.1.15,2013-04-14 05:17:00,
2013-04-14 00:23:00,40.1,32.5,29.85,ESE,120,2.0,7.0,74,0.00,,,0.00,Wunderground v.1.15,2013-04-14 05:23:00,
2013-04-14 00:29:00,39.8,32.8,29.85,East,94,2.0,2.0,76,0.00,,,0.00,Wunderground v.1.15,2013-04-14 05:29:00,
2013-04-14 00:35:00,39.6,33.3,29.85,East,83,2.0,7.0,78,0.00,,,0.00,Wunderground v.1.15,2013-04-14 05:35:00,
2013-04-14 00:41:00,39.4,33.1,29.85,ESE,108,2.0,7.0,78,0.00,,,0.00,Wunderground v.1.15,2013-04-14 05:41:00,
2013-04-14 00:47:00,39.3,33.0,29.85,ESE,121,2.0,7.0,78,0.00,,,0.00,Wunderground v.1.15,2013-04-14 05:47:00,
2013-04-14 00:53:00,39.3,33.3,29.84,SE,136,3.0,7.0,79,0.00,,,0.00,Wunderground v.1.15,2013-04-14 05:53:00,
2013-04-14 00:59:00,39.3,33.3,29.84,East,97,3.0,7.0,79,0.00,,,0.00,Wunderground v.1.15,2013-04-14 05:59:00,
2013-04-14 01:05:00,39.1,33.8,29.84,East,96,2.0,7.0,81,0.17,,,0.01,Wunderground v.1.15,2013-04-14 06:05:00,
2013-04-14 01:11:00,38.7,34.0,29.84,East,98,2.0,7.0,83,0.26,,,0.04,Wunderground v.1.15,2013-04-14 06:11:00,
2013-04-14 01:17:00,38.3,34.2,29.84,ENE,78,3.0,7.0,85,0.27,,,0.06,Wunderground v.1.15,2013-04-14 06:17:00,
2013-04-14 01:23:00,38.1,34.3,29.83,ESE,119,3.0,7.0,86,0.12,,,0.08,Wunderground v.1.15,2013-04-14 06:23:00,
2013-04-14 01:29:00,37.8,34.3,29.82,East,101,3.0,3.0,87,0.19,,,0.09,Wunderground v.1.15,2013-04-14 06:29:00,
2013-04-14 01:35:00,37.6,34.4,29.81,SE,138,4.0,7.0,88,0.13,,,0.10,Wunderground v.1.15,2013-04-14 06:35:00,
2013-04-14 01:41:00,37.6,34.4,29.82,SE,127,4.0,7.0,88,0.06,,,0.10,Wunderground v.1.15,2013-04-14 06:41:00,
2013-04-14 01:47:00,37.5,34.3,29.82,East,96,4.0,7.0,88,0.04,,,0.11,Wunderground v.1.15,2013-04-14 06:47:00,
2013-04-14 01:53:00,37.4,34.5,29.81,East,80,3.0,7.0,89,0.04,,,0.11,Wunderground v.1.15,2013-04-14 06:53:00,
2013-04-14 01:59:00,37.3,34.4,29.80,East,100,4.0,7.0,89,0.04,,,0.12,Wunderground v.1.15,2013-04-14 06:59:00,
2013-04-14 02:05:00,37.4,34.5,29.80,ESE,108,5.0,7.0,89,0.04,,,0.12,Wunderground v.1.15,2013-04-14 07:05:00,
2013-04-14 02:11:00,37.3,34.6,29.80,ESE,110,5.0,7.0,90,0.04,,,0.12,Wunderground v.1.15,2013-04-14 07:11:00,
2013-04-14 02:17:00,37.4,34.5,29.80,SE,131,5.0,7.0,89,0.00,,,0.12,Wunderground v.1.15,2013-04-14 07:17:00,
2013-04-14 02:23:00,37.4,34.5,29.80,ESE,119,5.0,7.0,89,0.00,,,0.12,Wunderground v.1.15,2013-04-14 07:23:00,
2013-04-14 02:29:00,37.4,34.2,29.80,SE,125,6.0,6.0,88,0.00,,,0.12,Wunderground v.1.15,2013-04-14 07:29:00,
2013-04-14 02:35:00,37.3,34.4,29.81,East,101,6.0,7.0,89,0.00,,,0.12,Wunderground v.1.15,2013-04-14 07:35:00,
2013-04-14 02:41:00,37.3,34.4,29.81,ESE,103,5.0,7.0,89,0.00,,,0.12,Wunderground v.1.15,2013-04-14 07:41:00,
2013-04-14 02:47:00,37.4,34.5,29.82,ESE,122,5.0,7.0,89,0.00,,,0.12,Wunderground v.1.15,2013-04-14 07:47:00,
2013-04-14 02:53:00,37.4,34.5,29.81,ESE,119,5.0,7.0,89,0.00,,,0.12,Wunderground v.1.15,2013-04-14 07:53:00,
2013-04-14 02:59:00,37.4,34.5,29.80,ESE,123,5.0,7.0,89,0.00,,,0.12,Wunderground v.1.15,2013-04-14 07:59:00,
2013-04-14 03:05:00,37.3,34.4,29.80,ESE,107,4.0,7.0,89,0.00,,,0.12,Wunderground v.1.15,2013-04-14 08:05:00,
2013-04-14 03:11:00,37.3,34.4,29.79,ENE,78,5.0,7.0,89,0.00,,,0.12,Wunderground v.1.15,2013-04-14 08:11:00,
2013-04-14 03:17:00,37.3,34.4,29.79,East,84,5.0,7.0,89,0.00,,,0.12,Wunderground v.1.15,2013-04-14 08:17:00,
2013-04-14 03:23:00,37.3,34.4,29.79,East,94,5.0,7.0,89,0.00,,,0.12,Wunderground v.1.15,2013-04-14 08:23:00,
2013-04-14 03:29:00,37.4,34.5,29.78,East,92,4.0,7.0,89,0.00,,,0.12,Wunderground v.1.15,2013-04-14 08:29:00,
2013-04-14 03:35:00,37.4,34.5,29.78,ESE,113,4.0,7.0,89,0.00,,,0.12,Wunderground v.1.15,2013-04-14 08:35:00,
2013-04-14 03:41:00,37.4,34.5,29.79,SE,139,4.0,7.0,89,0.00,,,0.12,Wunderground v.1.15,2013-04-14 08:41:00,
2013-04-14 03:47:00,37.3,34.4,29.79,East,99,5.0,7.0,89,0.00,,,0.12,Wunderground v.1.15,2013-04-14 08:47:00,
2013-04-14 03:53:00,37.2,34.5,29.78,East,97,6.0,10.0,90,0.00,,,0.13,Wunderground v.1.15,2013-04-14 08:53:00,
2013-04-14 03:59:00,37.1,34.4,29.78,East,86,4.0,4.0,90,0.06,,,0.14,Wunderground v.1.15,2013-04-14 08:59:00,
2013-04-14 04:05:00,36.9,34.2,29.78,NE,37,3.0,7.0,90,0.11,,,0.15,Wunderground v.1.15,2013-04-14 09:05:00,
2013-04-14 04:11:00,36.8,34.4,29.78,East,99,4.0,7.0,91,0.11,,,0.16,Wunderground v.1.15,2013-04-14 09:11:00,
2013-04-14 04:17:00,36.7,34.3,29.78,ENE,78,4.0,7.0,91,0.08,,,0.16,Wunderground v.1.15,2013-04-14 09:17:00,
2013-04-14 04:23:00,36.7,34.3,29.78,SE,127,4.0,7.0,91,0.08,,,0.17,Wunderground v.1.15,2013-04-14 09:23:00,
2013-04-14 04:29:00,36.7,34.3,29.77,SSE,150,4.0,7.0,91,0.05,,,0.17,Wunderground v.1.15,2013-04-14 09:29:00,
2013-04-14 04:35:00,36.7,34.3,29.77,ESE,103,5.0,7.0,91,0.04,,,0.18,Wunderground v.1.15,2013-04-14 09:35:00,
2013-04-14 04:41:00,36.6,34.2,29.77,ESE,122,5.0,7.0,91,0.04,,,0.18,Wunderground v.1.15,2013-04-14 09:41:00,
2013-04-14 04:47:00,36.6,34.2,29.77,East,96,4.0,7.0,91,0.04,,,0.18,Wunderground v.1.15,2013-04-14 09:47:00,
2013-04-14 04:53:00,36.5,34.4,29.77,NNE,29,4.0,7.0,92,0.00,,,0.18,Wunderground v.1.15,2013-04-14 09:53:00,
2013-04-14 04:59:00,36.5,34.4,29.77,ESE,103,4.0,7.0,92,0.00,,,0.18,Wunderground v.1.15,2013-04-14 09:59:00,
2013-04-14 05:05:00,36.5,34.4,29.77,ESE,103,6.0,7.0,92,0.00,,,0.18,Wunderground v.1.15,2013-04-14 10:05:00,
2013-04-14 05:11:00,36.5,34.4,29.77,ESE,113,5.0,7.0,92,0.00,,,0.18,Wunderground v.1.15,2013-04-14 10:11:00,
2013-04-14 05:17:00,36.5,34.4,29.77,East,91,4.0,7.0,92,0.00,,,0.19,Wunderground v.1.15,2013-04-14 10:17:00,
2013-04-14 05:23:00,36.4,34.3,29.77,East,89,5.0,7.0,92,0.07,,,0.20,Wunderground v.1.15,2013-04-14 10:23:00,
2013-04-14 05:29:00,36.4,34.3,29.77,East,84,5.0,5.0,92,0.07,,,0.20,Wunderground v.1.15,2013-04-14 10:29:00,
2013-04-14 05:35:00,36.4,34.3,29.76,East,98,5.0,7.0,92,0.13,,,0.22,Wunderground v.1.15,2013-04-14 10:35:00,
2013-04-14 05:41:00,36.4,34.3,29.76,SSE,152,5.0,7.0,92,0.13,,,0.23,Wunderground v.1.15,2013-04-14 10:41:00,
2013-04-14 05:47:00,36.3,34.5,29.75,SSE,153,5.0,7.0,93,0.09,,,0.24,Wunderground v.1.15,2013-04-14 10:47:00,
2013-04-14 05:53:00,36.2,34.4,29.75,ENE,72,6.0,9.0,93,0.14,,,0.25,Wunderground v.1.15,2013-04-14 10:53:00,
2013-04-14 05:59:00,36.1,34.3,29.75,ESE,113,5.0,5.0,93,0.08,,,0.26,Wunderground v.1.15,2013-04-14 10:59:00,
2013-04-14 06:05:00,36.1,34.3,29.73,ESE,105,5.0,7.0,93,0.09,,,0.27,Wunderground v.1.15,2013-04-14 11:05:00,
2013-04-14 06:11:00,36.2,34.6,29.73,SE,129,5.0,7.0,94,0.08,,,0.27,Wunderground v.1.15,2013-04-14 11:11:00,
2013-04-14 06:17:00,36.4,34.6,29.73,NE,40,4.0,8.0,93,0.05,,,0.28,Wunderground v.1.15,2013-04-14 11:17:00,
2013-04-14 06:23:00,36.4,34.6,29.72,SE,128,5.0,7.0,93,0.05,,,0.28,Wunderground v.1.15,2013-04-14 11:23:00,
2013-04-14 06:29:00,36.3,34.5,29.71,ESE,106,5.0,10.0,93,0.05,,,0.28,Wunderground v.1.15,2013-04-14 11:29:00,
2013-04-14 06:35:00,36.3,34.5,29.72,East,90,6.0,10.0,93,0.00,,,0.28,Wunderground v.1.15,2013-04-14 11:35:00,
2013-04-14 06:41:00,36.4,34.6,29.70,East,91,6.0,7.0,93,0.00,,,0.28,Wunderground v.1.15,2013-04-14 11:41:00,
2013-04-14 06:47:00,36.4,34.6,29.70,East,101,6.0,17.0,93,0.00,,,0.28,Wunderground v.1.15,2013-04-14 11:47:00,
2013-04-14 06:53:00,36.6,34.5,29.69,East,94,7.0,8.0,92,0.00,,,0.28,Wunderground v.1.15,2013-04-14 11:53:00,
2013-04-14 06:59:00,36.8,34.4,29.69,ESE,123,7.0,8.0,91,0.00,,,0.28,Wunderground v.1.15,2013-04-14 11:59:00,
2013-04-14 07:05:00,36.9,34.5,29.69,East,80,7.0,10.0,91,0.00,,,0.28,Wunderground v.1.15,2013-04-14 12:05:00,
2013-04-14 07:11:00,37.1,34.4,29.69,ESE,113,8.0,11.0,90,0.00,,,0.28,Wunderground v.1.15,2013-04-14 12:11:00,
2013-04-14 07:17:00,37.2,34.5,29.69,ESE,102,9.0,12.0,90,0.00,,,0.28,Wunderground v.1.15,2013-04-14 12:17:00,
2013-04-14 07:23:00,37.2,34.3,29.68,ENE,67,9.0,12.0,89,0.00,,,0.28,Wunderground v.1.15,2013-04-14 12:23:00,
2013-04-14 07:29:00,37.1,34.2,29.68,ESE,103,8.0,9.0,89,0.00,,,0.28,Wunderground v.1.15,2013-04-14 12:29:00,
2013-04-14 07:35:00,37.1,34.2,29.68,ESE,103,9.0,13.0,89,0.00,,,0.28,Wunderground v.1.15,2013-04-14 12:35:00,
2013-04-14 07:41:00,37.0,34.1,29.68,ESE,115,8.0,8.0,89,0.00,,,0.28,Wunderground v.1.15,2013-04-14 12:41:00,
2013-04-14 07:47:00,36.9,34.0,29.68,SE,133,8.0,9.0,89,0.00,,,0.28,Wunderground v.1.15,2013-04-14 12:47:00,
2013-04-14 07:53:00,36.9,34.0,29.67,ESE,103,8.0,11.0,89,0.00,,,0.28,Wunderground v.1.15,2013-04-14 12:53:00,
2013-04-14 07:59:00,36.9,34.0,29.67,ESE,115,7.0,7.0,89,0.00,,,0.28,Wunderground v.1.15,2013-04-14 12:59:00,
2013-04-14 08:05:00,36.9,34.0,29.67,ESE,120,8.0,8.0,89,0.00,,,0.28,Wunderground v.1.15,2013-04-14 13:05:00,
2013-04-14 08:11:00,36.9,34.0,29.66,NE,56,9.0,12.0,89,0.00,,,0.28,Wunderground v.1.15,2013-04-14 13:11:00,
2013-04-14 08:17:00,36.9,34.0,29.66,SSE,162,8.0,12.0,89,0.00,,,0.28,Wunderground v.1.15,2013-04-14 13:17:00,
2013-04-14 08:23:00,37.0,34.1,29.67,ESE,113,8.0,8.0,89,0.00,,,0.28,Wunderground v.1.15,2013-04-14 13:23:00,
2013-04-14 08:29:00,37.1,34.2,29.67,East,92,7.0,7.0,89,0.00,,,0.28,Wunderground v.1.15,2013-04-14 13:29:00,
2013-04-14 08:35:00,37.2,34.3,29.67,SE,127,7.0,7.0,89,0.00,,,0.28,Wunderground v.1.15,2013-04-14 13:35:00,
2013-04-14 08:41:00,37.2,34.3,29.67,ESE,105,7.0,8.0,89,0.00,,,0.28,Wunderground v.1.15,2013-04-14 13:41:00,
2013-04-14 08:47:00,37.3,34.4,29.67,ESE,121,7.0,8.0,89,0.00,,,0.28,Wunderground v.1.15,2013-04-14 13:47:00,
2013-04-14 08:53:00,37.4,34.2,29.67,ESE,122,7.0,8.0,88,0.00,,,0.28,Wunderground v.1.15,2013-04-14 13:53:00,
2013-04-14 08:59:00,37.7,34.8,29.67,East,88,6.0,9.0,89,0.00,,,0.28,Wunderground v.1.15,2013-04-14 13:59:00,
2013-04-14 09:05:00,37.8,34.8,29.66,ESE,105,6.0,10.0,89,0.00,,,0.28,Wunderground v.1.15,2013-04-14 14:05:00,
2013-04-14 09:11:00,38.0,35.0,29.66,ESE,108,6.0,7.0,89,0.00,,,0.28,Wunderground v.1.15,2013-04-14 14:11:00,
2013-04-14 09:17:00,38.2,35.0,29.66,ESE,119,6.0,13.0,88,0.00,,,0.28,Wunderground v.1.15,2013-04-14 14:17:00,
2013-04-14 09:23:00,38.4,35.2,29.65,SE,128,7.0,15.0,88,0.00,,,0.28,Wunderground v.1.15,2013-04-14 14:23:00,
2013-04-14 09:29:00,38.5,35.3,29.65,East,94,7.0,7.0,88,0.00,,,0.28,Wunderground v.1.15,2013-04-14 14:29:00,
2013-04-14 09:35:00,38.7,35.5,29.65,ESE,119,7.0,9.0,88,0.00,,,0.28,Wunderground v.1.15,2013-04-14 14:35:00,
2013-04-14 09:41:00,38.7,35.5,29.65,SE,131,7.0,10.0,88,0.00,,,0.28,Wunderground v.1.15,2013-04-14 14:41:00,
2013-04-14 09:47:00,38.9,35.6,29.64,East,85,8.0,11.0,88,0.00,,,0.28,Wunderground v.1.15,2013-04-14 14:47:00,
2013-04-14 09:53:00,39.3,36.0,29.64,ESE,113,9.0,14.0,88,0.00,,,0.28,Wunderground v.1.15,2013-04-14 14:53:00,
2013-04-14 09:59:00,39.5,36.2,29.64,East,92,7.0,9.0,88,0.00,,,0.28,Wunderground v.1.15,2013-04-14 14:59:00,
2013-04-14 10:05:00,39.6,36.3,29.63,SE,129,7.0,11.0,88,0.00,,,0.28,Wunderground v.1.15,2013-04-14 15:05:00,
2013-04-14 10:11:00,39.8,36.5,29.63,ESE,120,8.0,9.0,88,0.00,,,0.28,Wunderground v.1.15,2013-04-14 15:11:00,
2013-04-14 10:17:00,40.1,36.8,29.63,ENE,71,8.0,10.0,88,0.00,,,0.28,Wunderground v.1.15,2013-04-14 15:17:00,
2013-04-14 10:23:00,40.5,36.9,29.62,ESE,113,9.0,13.0,87,0.00,,,0.28,Wunderground v.1.15,2013-04-14 15:23:00,
2013-04-14 10:29:00,40.7,37.1,29.62,SE,132,9.0,9.0,87,0.00,,,0.28,Wunderground v.1.15,2013-04-14 15:29:00,
2013-04-14 10:35:00,40.8,37.2,29.62,SE,127,10.0,10.0,87,0.00,,,0.28,Wunderground v.1.15,2013-04-14 15:35:00,
2013-04-14 10:41:00,41.0,37.4,29.61,SE,125,10.0,13.0,87,0.00,,,0.28,Wunderground v.1.15,2013-04-14 15:41:00,
2013-04-14 10:47:00,41.0,37.7,29.62,SE,135,9.0,13.0,88,0.00,,,0.29,Wunderground v.1.15,2013-04-14 15:47:00,
2013-04-14 10:53:00,41.1,37.8,29.61,SE,146,9.0,9.0,88,0.00,,,0.29,Wunderground v.1.15,2013-04-14 15:53:00,
2013-04-14 10:59:00,41.3,38.3,29.61,SE,124,8.0,8.0,89,0.04,,,0.30,Wunderground v.1.15,2013-04-14 15:59:00,
2013-04-14 11:05:00,41.7,38.7,29.60,ESE,122,8.0,9.0,89,0.04,,,0.30,Wunderground v.1.15,2013-04-14 16:05:00,
2013-04-14 11:11:00,42.1,39.1,29.60,ESE,116,8.0,9.0,89,0.04,,,0.30,Wunderground v.1.15,2013-04-14 16:11:00,
2013-04-14 11:17:00,42.7,39.7,29.60,SE,131,8.0,10.0,89,0.00,,,0.30,Wunderground v.1.15,2013-04-14 16:17:00,
2013-04-14 11:23:00,43.3,40.3,29.59,East,99,8.0,8.0,89,0.00,,,0.30,Wunderground v.1.15,2013-04-14 16:23:00,
2013-04-14 11:29:00,44.2,41.5,29.58,East,95,8.0,8.0,90,0.00,,,0.30,Wunderground v.1.15,2013-04-14 16:29:00,
2013-04-14 11:35:00,44.7,41.4,29.57,SE,127,9.0,12.0,88,0.00,,,0.30,Wunderground v.1.15,2013-04-14 16:35:00,
2013-04-14 11:41:00,45.3,41.4,29.57,ESE,115,10.0,12.0,86,0.00,,,0.30,Wunderground v.1.15,2013-04-14 16:41:00,
2013-04-14 11:47:00,45.4,41.5,29.56,SE,134,10.0,13.0,86,0.00,,,0.30,Wunderground v.1.15,2013-04-14 16:47:00,
2013-04-14 11:53:00,45.8,41.9,29.55,ESE,121,9.0,10.0,86,0.00,,,0.30,Wunderground v.1.15,2013-04-14 16:53:00,
2013-04-14 11:59:00,46.5,42.5,29.55,ESE,104,8.0,8.0,86,0.00,,,0.30,Wunderground v.1.15,2013-04-14 16:59:00,
2013-04-14 12:05:00,46.9,42.9,29.54,ESE,115,8.0,12.0,86,0.00,,,0.30,Wunderground v.1.15,2013-04-14 17:05:00,
2013-04-14 12:11:00,47.2,42.9,29.54,East,100,9.0,10.0,85,0.00,,,0.30,Wunderground v.1.15,2013-04-14 17:11:00,
2013-04-14 12:17:00,47.8,43.5,29.53,ESE,113,8.0,11.0,85,0.00,,,0.30,Wunderground v.1.15,2013-04-14 17:17:00,
2013-04-14 12:23:00,48.4,43.5,29.52,ESE,119,9.0,12.0,83,0.00,,,0.30,Wunderground v.1.15,2013-04-14 17:23:00,
2013-04-14 12:29:00,49.2,43.9,29.51,SSE,158,10.0,10.0,82,0.00,,,0.30,Wunderground v.1.15,2013-04-14 17:29:00,
2013-04-14 12:35:00,50.0,44.7,29.51,ESE,107,10.0,12.0,82,0.00,,,0.30,Wunderground v.1.15,2013-04-14 17:35:00,
2013-04-14 12:41:00,50.1,44.2,29.50,ESE,110,10.0,15.0,80,0.00,,,0.30,Wunderground v.1.15,2013-04-14 17:41:00,
2013-04-14 12:47:00,50.3,44.7,29.50,ESE,110,9.0,15.0,81,0.00,,,0.30,Wunderground v.1.15,2013-04-14 17:47:00,
2013-04-14 12:53:00,50.5,44.9,29.51,SE,139,8.0,9.0,81,0.00,,,0.30,Wunderground v.1.15,2013-04-14 17:53:00,
2013-04-14 12:59:00,50.8,45.2,29.51,ESE,117,7.0,7.0,81,0.00,,,0.30,Wunderground v.1.15,2013-04-14 17:59:00,
2013-04-14 13:05:00,50.9,44.9,29.51,SSE,162,7.0,14.0,80,0.00,,,0.30,Wunderground v.1.15,2013-04-14 18:05:00,
2013-04-14 13:11:00,51.2,44.9,29.50,SE,129,9.0,13.0,79,0.00,,,0.30,Wunderground v.1.15,2013-04-14 18:11:00,
2013-04-14 13:17:00,51.3,45.3,29.50,ESE,121,9.0,13.0,80,0.00,,,0.30,Wunderground v.1.15,2013-04-14 18:17:00,
2013-04-14 13:23:00,51.6,45.6,29.49,ESE,121,7.0,9.0,80,0.00,,,0.30,Wunderground v.1.15,2013-04-14 18:23:00,
2013-04-14 13:29:00,51.8,45.5,29.49,East,86,8.0,8.0,79,0.00,,,0.30,Wunderground v.1.15,2013-04-14 18:29:00,
2013-04-14 13:35:00,52.3,46.3,29.48,East,89,8.0,10.0,80,0.00,,,0.30,Wunderground v.1.15,2013-04-14 18:35:00,
2013-04-14 13:41:00,52.7,46.7,29.48,ESE,119,7.0,7.0,80,0.00,,,0.30,Wunderground v.1.15,2013-04-14 18:41:00,
2013-04-14 13:47:00,53.3,47.0,29.47,East,86,7.0,15.0,79,0.00,,,0.30,Wunderground v.1.15,2013-04-14 18:47:00,
2013-04-14 13:53:00,54.3,47.9,29.47,East,86,7.0,7.0,79,0.00,,,0.30,Wunderground v.1.15,2013-04-14 18:53:00,
2013-04-14 13:59:00,55.3,48.6,29.47,SE,136,6.0,9.0,78,0.00,,,0.30,Wunderground v.1.15,2013-04-14 18:59:00,
2013-04-14 14:05:00,56.6,49.5,29.46,SE,126,8.0,10.0,77,0.00,,,0.30,Wunderground v.1.15,2013-04-14 19:05:00,
2013-04-14 14:11:00,57.5,49.6,29.46,SE,131,9.0,9.0,75,0.00,,,0.30,Wunderground v.1.15,2013-04-14 19:11:00,
2013-04-14 14:17:00,58.0,50.1,29.46,SE,124,8.0,9.0,75,0.00,,,0.30,Wunderground v.1.15,2013-04-14 19:17:00,
2013-04-14 14:23:00,58.9,51.0,29.45,ESE,123,8.0,11.0,75,0.00,,,0.30,Wunderground v.1.15,2013-04-14 19:23:00,
2013-04-14 14:29:00,59.9,51.2,29.45,SE,137,8.0,8.0,73,0.00,,,0.30,Wunderground v.1.15,2013-04-14 19:29:00,
2013-04-14 14:35:00,60.6,51.5,29.45,SE,130,6.0,9.0,72,0.00,,,0.30,Wunderground v.1.15,2013-04-14 19:35:00,
2013-04-14 14:41:00,61.5,52.0,29.45,SE,142,6.0,7.0,71,0.00,,,0.30,Wunderground v.1.15,2013-04-14 19:41:00,
2013-04-14 14:47:00,62.0,52.1,29.45,ESE,112,6.0,9.0,70,0.00,,,0.30,Wunderground v.1.15,2013-04-14 19:47:00,
2013-04-14 14:53:00,62.2,52.3,29.44,ESE,119,6.0,7.0,70,0.00,,,0.30,Wunderground v.1.15,2013-04-14 19:53:00,
2013-04-14 14:59:00,62.2,52.3,29.44,ESE,107,5.0,8.0,70,0.00,,,0.30,Wunderground v.1.15,2013-04-14 19:59:00,
2013-04-14 15:05:00,61.3,52.6,29.43,ESE,116,6.0,8.0,73,0.00,,,0.30,Wunderground v.1.15,2013-04-14 20:05:00,
2013-04-14 15:11:00,60.8,52.5,29.42,ESE,123,7.0,8.0,74,0.00,,,0.30,Wunderground v.1.15,2013-04-14 20:11:00,
2013-04-14 15:17:00,60.8,52.8,29.41,East,101,7.0,8.0,75,0.00,,,0.31,Wunderground v.1.15,2013-04-14 20:17:00,
2013-04-14 15:23:00,60.8,52.8,29.40,SE,138,7.0,8.0,75,0.00,,,0.31,Wunderground v.1.15,2013-04-14 20:23:00,
2013-04-14 15:29:00,61.0,53.0,29.39,East,101,6.0,7.0,75,0.00,,,0.31,Wunderground v.1.15,2013-04-14 20:29:00,
2013-04-14 15:35:00,61.6,53.2,29.39,SE,139,5.0,7.0,74,0.00,,,0.31,Wunderground v.1.15,2013-04-14 20:35:00,
2013-04-14 15:41:00,62.2,53.4,29.39,SE,139,5.0,7.0,73,0.00,,,0.31,Wunderground v.1.15,2013-04-14 20:41:00,
2013-04-14 15:47:00,63.1,54.3,29.38,SE,125,5.0,7.0,73,0.00,,,0.31,Wunderground v.1.15,2013-04-14 20:47:00,
2013-04-14 15:53:00,64.4,54.0,29.38,SE,143,5.0,8.0,69,0.00,,,0.31,Wunderground v.1.15,2013-04-14 20:53:00,
2013-04-14 15:59:00,65.5,53.8,29.38,ESE,122,5.0,5.0,66,0.00,,,0.31,Wunderground v.1.15,2013-04-14 20:59:00,
2013-04-14 16:05:00,65.8,53.7,29.38,SSE,152,5.0,7.0,65,0.00,,,0.31,Wunderground v.1.15,2013-04-14 21:05:00,
2013-04-14 16:11:00,65.8,54.5,29.40,SSW,212,3.0,7.0,67,0.00,,,0.31,Wunderground v.1.15,2013-04-14 21:11:00,
2013-04-14 16:17:00,65.3,56.0,29.40,SSW,201,3.0,7.0,72,0.23,,,0.33,Wunderground v.1.15,2013-04-14 21:17:00,
2013-04-14 16:23:00,63.8,56.4,29.40,SE,146,2.0,7.0,77,0.17,,,0.34,Wunderground v.1.15,2013-04-14 21:23:00,
2013-04-14 16:29:00,62.6,56.3,29.39,SSE,155,2.0,2.0,80,0.14,,,0.36,Wunderground v.1.15,2013-04-14 21:29:00,
2013-04-14 16:35:00,62.1,56.5,29.39,South,186,1.0,7.0,82,0.06,,,0.36,Wunderground v.1.15,2013-04-14 21:35:00,
2013-04-14 16:41:00,62.0,56.4,29.39,South,174,2.0,3.0,82,0.04,,,0.36,Wunderground v.1.15,2013-04-14 21:41:00,
2013-04-14 16:47:00,62.1,56.5,29.38,SE,135,3.0,7.0,82,0.00,,,0.37,Wunderground v.1.15,2013-04-14 21:47:00,
2013-04-14 16:53:00,62.4,56.1,29.38,SSE,166,4.0,10.0,80,0.00,,,0.37,Wunderground v.1.15,2013-04-14 21:53:00,
2013-04-14 16:59:00,62.8,55.8,29.38,SSW,193,4.0,7.0,78,0.00,,,0.37,Wunderground v.1.15,2013-04-14 21:59:00,
2013-04-14 17:05:00,63.2,55.9,29.38,South,184,4.0,7.0,77,0.00,,,0.37,Wunderground v.1.15,2013-04-14 22:05:00,
2013-04-14 17:11:00,63.3,55.2,29.37,South,173,4.0,7.0,75,0.00,,,0.37,Wunderground v.1.15,2013-04-14 22:11:00,
2013-04-14 17:17:00,63.2,55.1,29.37,SE,137,5.0,7.0,75,0.00,,,0.37,Wunderground v.1.15,2013-04-14 22:17:00,
2013-04-14 17:23:00,63.1,55.0,29.38,SSE,167,5.0,7.0,75,0.00,,,0.37,Wunderground v.1.15,2013-04-14 22:23:00,
2013-04-14 17:29:00,63.0,54.9,29.38,SSE,165,4.0,7.0,75,0.00,,,0.37,Wunderground v.1.15,2013-04-14 22:29:00,
2013-04-14 17:35:00,62.6,55.3,29.39,SSE,163,3.0,7.0,77,0.00,,,0.37,Wunderground v.1.15,2013-04-14 22:35:00,
2013-04-14 17:42:00,62.0,55.4,29.39,South,177,2.0,7.0,79,0.00,,,0.37,Wunderground v.1.15,2013-04-14 22:42:00,
2013-04-14 17:47:00,61.5,55.6,29.39,SSE,147,1.0,7.0,81,0.00,,,0.38,Wunderground v.1.15,2013-04-14 22:47:00,
2013-04-14 17:53:00,61.0,55.5,29.38,SSE,148,2.0,7.0,82,0.00,,,0.38,Wunderground v.1.15,2013-04-14 22:53:00,
2013-04-14 17:59:00,60.7,55.2,29.37,SSE,158,2.0,7.0,82,0.05,,,0.39,Wunderground v.1.15,2013-04-14 22:59:00,
2013-04-14 18:05:00,60.5,55.3,29.37,SSE,159,2.0,7.0,83,0.05,,,0.39,Wunderground v.1.15,2013-04-14 23:05:00,
2013-04-14 18:11:00,60.7,54.8,29.37,SSE,162,3.0,7.0,81,0.05,,,0.39,Wunderground v.1.15,2013-04-14 23:11:00,
2013-04-14 18:17:00,61.1,54.9,29.37,SW,222,3.0,7.0,80,0.00,,,0.39,Wunderground v.1.15,2013-04-14 23:17:00,
2013-04-14 18:23:00,60.9,54.7,29.38,SE,145,3.0,7.0,80,0.00,,,0.39,Wunderground v.1.15,2013-04-14 23:23:00,
2013-04-14 18:29:00,60.8,54.9,29.39,South,172,3.0,7.0,81,0.00,,,0.39,Wunderground v.1.15,2013-04-14 23:29:00,
2013-04-14 18:35:00,60.5,55.0,29.39,South,171,3.0,7.0,82,0.00,,,0.39,Wunderground v.1.15,2013-04-14 23:35:00,
2013-04-14 18:41:00,60.4,54.9,29.40,SSW,208,3.0,7.0,82,0.00,,,0.39,Wunderground v.1.15,2013-04-14 23:41:00,
2013-04-14 18:47:00,60.2,55.0,29.40,South,187,2.0,7.0,83,0.00,,,0.40,Wunderground v.1.15,2013-04-14 23:47:00,
2013-04-14 18:53:00,59.7,54.9,29.40,SW,221,2.0,7.0,84,0.00,,,0.40,Wunderground v.1.15,2013-04-14 23:53:00,
2013-04-14 18:59:00,59.5,55.0,29.40,SSW,208,1.0,7.0,85,0.00,,,0.40,Wunderground v.1.15,2013-04-14 23:59:00,
2013-04-14 19:05:00,59.3,55.4,29.40,SSW,210,2.0,7.0,87,0.51,,,0.43,Wunderground v.1.15,2013-04-15 00:05:00,
2013-04-14 19:11:00,58.8,55.6,29.42,WNW,283,2.0,7.0,89,0.21,,,0.47,Wunderground v.1.15,2013-04-15 00:11:00,
2013-04-14 19:17:00,58.6,55.7,29.43,SW,231,4.0,11.0,90,0.72,,,0.52,Wunderground v.1.15,2013-04-15 00:17:00,
2013-04-14 19:23:00,57.3,54.4,29.44,SW,231,8.0,13.0,90,0.29,,,0.56,Wunderground v.1.15,2013-04-15 00:23:00,
2013-04-14 19:29:00,56.5,53.6,29.45,SW,222,7.0,7.0,90,0.63,,,0.60,Wunderground v.1.15,2013-04-15 00:29:00,
2013-04-14 19:35:00,56.0,53.4,29.46,WSW,245,4.0,7.0,91,0.74,,,0.64,Wunderground v.1.15,2013-04-15 00:35:00,
2013-04-14 19:41:00,55.7,53.7,29.45,West,259,3.0,7.0,93,0.38,,,0.72,Wunderground v.1.15,2013-04-15 00:41:00,
2013-04-14 19:47:00,55.6,53.9,29.45,SW,233,3.0,7.0,94,0.12,,,0.74,Wunderground v.1.15,2013-04-15 00:47:00,
2013-04-14 19:53:00,55.5,53.8,29.44,South,186,2.0,7.0,94,0.17,,,0.76,Wunderground v.1.15,2013-04-15 00:53:00,
2013-04-14 19:59:00,55.3,53.6,29.45,SSE,165,2.0,2.0,94,0.09,,,0.76,Wunderground v.1.15,2013-04-15 00:59:00,
2013-04-14 20:05:00,54.9,53.2,29.46,South,172,2.0,7.0,94,0.08,,,0.77,Wunderground v.1.15,2013-04-15 01:05:00,
2013-04-14 20:11:00,54.7,53.0,29.46,SSE,165,2.0,7.0,94,0.37,,,0.80,Wunderground v.1.15,2013-04-15 01:11:00,
2013-04-14 20:17:00,54.3,52.6,29.46,South,186,2.0,7.0,94,0.24,,,0.83,Wunderground v.1.15,2013-04-15 01:17:00,
2013-04-14 20:23:00,54.2,52.5,29.47,SW,221,1.0,7.0,94,0.34,,,0.86,Wunderground v.1.15,2013-04-15 01:23:00,
2013-04-14 20:29:00,54.3,52.9,29.48,SSE,159,2.0,7.0,95,0.18,,,0.89,Wunderground v.1.15,2013-04-15 01:29:00,
2013-04-14 20:35:00,54.3,52.9,29.48,South,187,2.0,7.0,95,0.26,,,0.91,Wunderground v.1.15,2013-04-15 01:35:00,
2013-04-14 20:41:00,54.2,52.8,29.48,South,170,2.0,7.0,95,0.34,,,0.94,Wunderground v.1.15,2013-04-15 01:41:00,
2013-04-14 20:47:00,54.1,52.7,29.49,South,176,1.0,7.0,95,0.26,,,0.98,Wunderground v.1.15,2013-04-15 01:47:00,
2013-04-14 20:53:00,53.9,52.5,29.49,West,273,0.0,7.0,95,0.27,,,1.00,Wunderground v.1.15,2013-04-15 01:53:00,
2013-04-14 20:59:00,53.8,52.4,29.49,SE,142,1.0,7.0,95,0.17,,,1.02,Wunderground v.1.15,2013-04-15 01:59:00,
2013-04-14 21:05:00,53.7,52.3,29.50,SSE,163,1.0,7.0,95,0.14,,,1.03,Wunderground v.1.15,2013-04-15 02:05:00,
2013-04-14 21:12:00,53.5,52.1,29.49,SSE,149,1.0,7.0,95,0.16,,,1.05,Wunderground v.1.15,2013-04-15 02:12:00,
2013-04-14 21:18:00,53.4,52.0,29.49,SE,142,1.0,7.0,95,0.26,,,1.08,Wunderground v.1.15,2013-04-15 02:18:00,
2013-04-14 21:24:00,53.2,52.1,29.49,SSE,149,1.0,7.0,96,0.12,,,1.09,Wunderground v.1.15,2013-04-15 02:24:00,
2013-04-14 21:30:00,53.2,52.1,29.49,West,260,1.0,1.0,96,0.06,,,1.09,Wunderground v.1.15,2013-04-15 02:30:00,
2013-04-14 21:36:00,53.2,52.1,29.50,SW,232,1.0,7.0,96,0.04,,,1.09,Wunderground v.1.15,2013-04-15 02:36:00,
2013-04-14 21:42:00,53.3,52.2,29.50,WNW,287,2.0,7.0,96,0.00,,,1.09,Wunderground v.1.15,2013-04-15 02:42:00,
2013-04-14 21:48:00,53.3,52.2,29.51,WSW,250,2.0,7.0,96,0.00,,,1.09,Wunderground v.1.15,2013-04-15 02:48:00,
2013-04-14 21:54:00,53.5,52.1,29.52,West,271,2.0,7.0,95,0.00,,,1.09,Wunderground v.1.15,2013-04-15 02:54:00,
2013-04-14 22:00:00,53.5,51.8,29.52,WNW,300,2.0,2.0,94,0.00,,,1.09,Wunderground v.1.15,2013-04-15 03:00:00,
2013-04-14 22:06:00,53.4,51.7,29.53,West,278,1.0,7.0,94,0.00,,,1.09,Wunderground v.1.15,2013-04-15 03:06:00,
2013-04-14 22:12:00,53.2,51.5,29.53,NW,304,1.0,7.0,94,0.00,,,1.09,Wunderground v.1.15,2013-04-15 03:12:00,
2013-04-14 22:18:00,53.0,50.4,29.53,NW,309,2.0,7.0,91,0.00,,,1.09,Wunderground v.1.15,2013-04-15 03:18:00,
2013-04-14 22:24:00,52.6,49.4,29.53,WNW,300,2.0,7.0,89,0.00,,,1.09,Wunderground v.1.15,2013-04-15 03:24:00,
2013-04-14 22:30:00,52.4,48.9,29.53,West,281,2.0,2.0,88,0.00,,,1.09,Wunderground v.1.15,2013-04-15 03:30:00,
2013-04-14 22:36:00,52.1,48.3,29.54,NW,307,1.0,7.0,87,0.00,,,1.09,Wunderground v.1.15,2013-04-15 03:36:00,
2013-04-14 22:42:00,52.0,48.3,29.54,WSW,257,1.0,7.0,87,0.00,,,1.09,Wunderground v.1.15,2013-04-15 03:42:00,
2013-04-14 22:48:00,51.8,48.1,29.55,WSW,250,1.0,7.0,87,0.00,,,1.09,Wunderground v.1.15,2013-04-15 03:48:00,
2013-04-14 22:54:00,51.8,48.1,29.54,West,259,1.0,7.0,87,0.00,,,1.09,Wunderground v.1.15,2013-04-15 03:54:00,
2013-04-14 23:00:00,51.4,48.0,29.53,West,259,0.0,7.0,88,0.00,,,1.09,Wunderground v.1.15,2013-04-15 04:00:00,
2013-04-14 23:02:00,51.3,47.9,29.53,West,259,0.0,7.0,88,0.00,,,1.09,Wunderground v.1.15,2013-04-15 04:02:00,
2013-04-14 23:06:00,51.1,48.3,29.54,West,259,0.0,7.0,90,0.00,,,1.09,Wunderground v.1.15,2013-04-15 04:06:00,
2013-04-14 23:12:00,50.6,47.8,29.55,WSW,252,0.0,7.0,90,0.00,,,1.09,Wunderground v.1.15,2013-04-15 04:12:00,
2013-04-14 23:18:00,50.6,47.8,29.55,WSW,250,0.0,7.0,90,0.00,,,1.09,Wunderground v.1.15,2013-04-15 04:18:00,
2013-04-14 23:24:00,50.5,47.7,29.55,WSW,250,0.0,7.0,90,0.00,,,1.09,Wunderground v.1.15,2013-04-15 04:24:00,
2013-04-14 23:26:00,50.5,47.7,29.56,WSW,249,0.0,7.0,90,0.00,,,1.09,Wunderground v.1.15,2013-04-15 04:26:00,
2013-04-14 23:32:00,50.4,47.6,29.56,West,267,0.0,7.0,90,0.00,,,1.09,Wunderground v.1.15,2013-04-15 04:32:00,
2013-04-14 23:38:00,50.3,47.5,29.56,West,266,0.0,7.0,90,0.00,,,1.09,Wunderground v.1.15,2013-04-15 04:38:00,
2013-04-14 23:44:00,50.2,47.4,29.56,WSW,252,0.0,7.0,90,0.00,,,1.09,Wunderground v.1.15,2013-04-15 04:44:00,
2013-04-14 23:50:00,50.0,47.2,29.56,West,263,0.0,7.0,90,0.00,,,1.09,Wunderground v.1.15,2013-04-15 04:50:00,
2013-04-14 23:56:00,49.8,47.0,29.57,WSW,255,0.0,7.0,90,0.00,,,1.09,Wunderground v.1.15,2013-04-15 04:56:00,